Regional Weather Roundup
Issued by NWS Albany, NY

Home | Current Version | Previous Version | Graphics & Text | Print | Product List | Glossary Off
Versions: 1 2 3 4 5 6 7 8 9 10 11 12 13 14 15 16 17 18 19 20 21 22 23 24 25 26 27 28 29 30 31 32 33 34 35 36 37 38 39 40 41 42 43 44 45 46 47 48 49 50

000
ASUS41 KALY 311710
RWRALY

NEW YORK STATE HOURLY WEATHER ROUNDUP
NATIONAL WEATHER SERVICE ALBANY NY
1200 PM EST SAT JAN 31 2015

NOTE: "FAIR" INDICATES FEW OR NO CLOUDS BELOW 12,000 FEET WITH NO
SIGNIFICANT WEATHER AND/OR NO OBSTRUCTIONS TO VISIBILITY.

NYZ032-033-038>043-046>054-057>066-NYZ062>081-311800-
EAST


CITY           SKY/WX    TMP DP  RH WIND       PRES   REMARKS
ALBANY         SUNNY      9 -11  40 NW18      30.17F WCI -10
GLENS FALLS    SUNNY     11 -11  36 N9        30.14F WCI  -2
POUGHKEEPSIE   SUNNY     19  -6  33 N13       30.12F WCI   6
NEWBURGH       SUNNY     18   0  45 NW14G23   30.11F WCI   4
MONTGOMERY     SUNNY     18  -5  36 NW16      30.12F WCI   3
WHITE PLAINS   SUNNY     18  -2  41 NW17G28   30.06F WCI   3
ISLIP          SUNNY     19   0  43 NW24G35   30.04R WCI   2
NEW YORK CITY  SUNNY     21   2  43 NW24G33   30.12F WCI   4
CENTRAL PARK   SUNNY     21  -2  36 W10G21    30.14F WCI  10
$$

NYZ005>009-017-018-044>046-055-056-311800-
CENTRAL


CITY           SKY/WX    TMP DP  RH WIND       PRES   REMARKS
FULTON         MIX PCPN  11   1  64 N10       30.30F WCI  -3
SYRACUSE       MOSUNNY    7   0  73 CALM      30.29F
ROME           SUNNY      5  -9  52 W14       30.29F WCI -12
ELMIRA         CLOUDY    18   5  57 NW15G25   30.24F WCI   4
BINGHAMTON     PTSUNNY   12   2  64 W10       30.15F WCI  -1
MONTICELLO     SUNNY     12  -2  52 NW26G33   30.07F WCI  -8
$$

NYZ026>034-041>043-311800-
NORTH


CITY           SKY/WX    TMP DP  RH WIND       PRES   REMARKS
WATERTOWN      SUNNY      3 -12  49 W3        30.31F
FORT DRUM      NOT AVBL
MASSENA        SUNNY     -1 -15  51 SW9       30.30F WCI -16
SARANAC LAKE   SUNNY      0 -15  49 W8        30.05F WCI -14
PLATTSBURGH    MIX PCPN   8 -15  34 N9        30.18F WCI  -5
$$

NYZ001>004-010>016-019>021-311800-
WEST


CITY           SKY/WX    TMP DP  RH WIND       PRES   REMARKS
NIAGARA FALLS  LGT SNOW  19  13  77 SW13      30.28F WCI   6
BUFFALO        LGT SNOW  17  11  77 SW13G20   30.28F WCI   4
DUNKIRK        CLOUDY    20  11  68 SW12G21   30.30F WCI   8
JAMESTOWN      MOSUNNY   14   7  73 SW7       30.22S WCI   4
WELLSVILLE     PTSUNNY   15   3  59 NW8       30.16F WCI   4
ROCHESTER      FLURRIES  15   7  70 SW7       30.29F WCI   5
PENN YAN       CLOUDY    15   6  67 NW5       30.26F WCI   8
$$

             KEY
       WCI = WIND CHILL INDEX
       VSB = VISIBILITY
       HX  = HEAT INDEX
$$



USA.gov is the U.S. government's official web portal to all federal, state and local government web resources and services.